| time (UTC) | temp F | wind direction | speed MPH | gust MPH | rain 1hr in | rain 24hr in | rain mn in | humidity % | barometer mb |
| 20260505053235 | 64 | 231 | 2.0 | 5.0 | 0.00 | 0.00 | 0.00 | 61 | 1014.7 |
| 20260505053000 | 64 | 212 | 2.0 | 4.0 | 0.00 | 0.00 | 0.00 | 61 | 1014.7 |
| 20260505052222 | 64 | 223 | 2.0 | 7.0 | 0.00 | 0.00 | 0.00 | 61 | 1014.7 |
| 20260505051717 | 64 | 223 | 1.0 | 6.0 | 0.00 | 0.00 | 0.00 | 61 | 1014.7 |
| 20260505051224 | 64 | 234 | 1.0 | 3.0 | 0.00 | 0.00 | 0.00 | 61 | 1014.8 |
| 20260505050704 | 64 | 210 | 1.0 | 5.0 | 0.00 | 0.00 | 0.00 | 60 | 1014.8 |
| 20260505050159 | 64 | 223 | 1.0 | 5.0 | 0.00 | 0.00 | 0.00 | 60 | 1015.0 |
| 20260505041605 | 65 | 215 | 1.0 | 4.0 | 0.00 | 0.00 | 0.00 | 61 | 1014.9 |
| 20260505041059 | 65 | 209 | 1.0 | 5.0 | 0.00 | 0.00 | 0.00 | 61 | 1014.8 |
| 20260505040553 | 65 | 185 | 1.0 | 4.0 | 0.00 | 0.00 | 0.00 | 61 | 1014.7 |
| 20260505040330 | 65 | 220 | 1.0 | 4.0 | 0.00 | 0.00 | 0.00 | 61 | 1014.7 |
| 20260505035541 | 65 | 211 | 1.0 | 4.0 | 0.00 | 0.00 | 0.00 | 60 | 1014.7 |
| 20260505035035 | 65 | 203 | 1.0 | 4.0 | 0.00 | 0.00 | 0.00 | 60 | 1014.7 |
| 20260505034528 | 65 | 210 | 2.0 | 4.0 | 0.00 | 0.00 | 0.00 | 60 | 1014.7 |
| 20260505034023 | 65 | 213 | 2.0 | 4.0 | 0.00 | 0.00 | 0.00 | 60 | 1014.6 |
| 20260505033517 | 65 | 191 | 1.0 | 4.0 | 0.00 | 0.00 | 0.00 | 60 | 1014.6 |
| 20260505033011 | 65 | 184 | 2.0 | 5.0 | 0.00 | 0.00 | 0.00 | 60 | 1014.6 |
| 20260505032505 | 65 | 215 | 2.0 | 8.0 | 0.00 | 0.00 | 0.00 | 60 | 1014.6 |
| 20260505031959 | 65 | 223 | 2.0 | 8.0 | 0.00 | 0.00 | 0.00 | 60 | 1014.6 |
| 20260505031453 | 65 | 217 | 2.0 | 4.0 | 0.00 | 0.00 | 0.00 | 60 | 1014.5 |
| 20260505030947 | 66 | 213 | 2.0 | 5.0 | 0.00 | 0.00 | 0.00 | 60 | 1014.5 |
| 20260505030444 | 66 | 217 | 2.0 | 5.0 | 0.00 | 0.00 | 0.00 | 60 | 1014.5 |
| 20260505030438 | 66 | 222 | 2.0 | 5.0 | 0.00 | 0.00 | 0.00 | 60 | 1014.5 |
| 20260505025429 | 66 | 239 | 2.0 | 5.0 | 0.00 | 0.00 | 0.00 | 60 | 1014.6 |
| 20260505024923 | 66 | 201 | 2.0 | 5.0 | 0.00 | 0.00 | 0.00 | 60 | 1014.5 |
| 20260505024417 | 66 | 211 | 2.0 | 7.0 | 0.00 | 0.00 | 0.00 | 60 | 1014.4 |
| 20260505024142 | 66 | 200 | 2.0 | 7.0 | 0.00 | 0.00 | 0.00 | 61 | 1014.4 |
| 20260505023405 | 66 | 220 | 2.0 | 5.0 | 0.00 | 0.00 | 0.00 | 61 | 1014.4 |
| 20260505022859 | 66 | 199 | 2.0 | 7.0 | 0.00 | 0.00 | 0.00 | 61 | 1014.4 |
| 20260505022352 | 66 | 177 | 2.0 | 7.0 | 0.00 | 0.00 | 0.00 | 61 | 1014.4 |
| 20260505021847 | 66 | 250 | 2.0 | 5.0 | 0.00 | 0.00 | 0.00 | 61 | 1014.4 |
| 20260505021341 | 66 | 204 | 2.0 | 8.0 | 0.00 | 0.00 | 0.00 | 61 | 1014.4 |
| 20260505020835 | 66 | 217 | 2.0 | 8.0 | 0.00 | 0.00 | 0.00 | 61 | 1014.5 |
| 20260505020329 | 66 | 205 | 1.0 | 4.0 | 0.00 | 0.00 | 0.00 | 61 | 1014.6 |
| 20260505020054 | 67 | 194 | 2.0 | 6.0 | 0.00 | 0.00 | 0.00 | 61 | 1014.5 |
| 20260505015547 | 67 | 213 | 2.0 | 6.0 | 0.00 | 0.00 | 0.00 | 61 | 1014.4 |
| 20260505014811 | 67 | 205 | 2.0 | 5.0 | 0.00 | 0.00 | 0.00 | 61 | 1014.4 |
| 20260505014304 | 67 | 175 | 3.0 | 6.0 | 0.00 | 0.00 | 0.00 | 61 | 1014.4 |
| 20260505013759 | 67 | 208 | 2.0 | 6.0 | 0.00 | 0.00 | 0.00 | 61 | 1014.3 |
| 20260505013253 | 67 | 201 | 2.0 | 5.0 | 0.00 | 0.00 | 0.00 | 60 | 1014.3 |
| 20260505012747 | 67 | 217 | 2.0 | 5.0 | 0.00 | 0.00 | 0.00 | 60 | 1014.3 |
| 20260505012241 | 67 | 227 | 2.0 | 5.0 | 0.00 | 0.00 | 0.00 | 60 | 1014.2 |
| 20260505011735 | 67 | 188 | 3.0 | 9.0 | 0.00 | 0.00 | 0.00 | 60 | 1014.1 |
| 20260505011229 | 68 | 207 | 2.0 | 9.0 | 0.00 | 0.00 | 0.00 | 59 | 1014.1 |
| 20260505010723 | 68 | 209 | 2.0 | 5.0 | 0.00 | 0.00 | 0.00 | 59 | 1013.9 |
| 20260505010217 | 68 | 202 | 3.0 | 10.0 | 0.00 | 0.00 | 0.00 | 59 | 1013.8 |
| 20260505005942 | 68 | 209 | 3.0 | 10.0 | 0.00 | 0.00 | 0.00 | 59 | 1013.7 |
| 20260505005205 | 68 | 209 | 3.0 | 8.0 | 0.00 | 0.00 | 0.00 | 59 | 1013.7 |
| 20260505004659 | 69 | 189 | 3.0 | 7.0 | 0.00 | 0.00 | 0.00 | 58 | 1013.5 |
| 20260505004153 | 69 | 229 | 3.0 | 7.0 | 0.00 | 0.00 | 0.00 | 58 | 1013.5 |
| 20260505003647 | 69 | 173 | 2.0 | 7.0 | 0.00 | 0.00 | 0.00 | 58 | 1013.5 |
| 20260505003140 | 69 | 170 | 2.0 | 7.0 | 0.00 | 0.00 | 0.00 | 58 | 1013.4 |
| 20260505002635 | 69 | 207 | 3.0 | 6.0 | 0.00 | 0.00 | 0.00 | 57 | 1013.4 |
| 20260505002129 | 69 | 203 | 3.0 | 8.0 | 0.00 | 0.00 | 0.00 | 57 | 1013.3 |
| 20260505001622 | 69 | 145 | 3.0 | 9.0 | 0.00 | 0.00 | 0.00 | 56 | 1013.3 |
| 20260505001117 | 70 | 190 | 3.0 | 9.0 | 0.00 | 0.00 | 0.00 | 56 | 1013.2 |
| 20260505000611 | 70 | 207 | 3.0 | 8.0 | 0.00 | 0.00 | 0.00 | 56 | 1013.1 |
| 20260505000109 | 70 | 169 | 3.0 | 8.0 | 0.00 | 0.00 | 0.00 | 55 | 1013.1 |
| 20260504235559 | 70 | 199 | 3.0 | 13.0 | 0.00 | 0.00 | 0.00 | 55 | 1013.2 |
| 20260504235053 | 70 | 205 | 3.0 | 13.0 | 0.00 | 0.00 | 0.00 | 54 | 1013.0 |
| 20260504234547 | 71 | 238 | 3.0 | 8.0 | 0.00 | 0.00 | 0.00 | 54 | 1013.1 |
| 20260504234041 | 71 | 217 | 3.0 | 14.0 | 0.00 | 0.00 | 0.00 | 54 | 1012.9 |
| 20260504233806 | 71 | 223 | 3.0 | 14.0 | 0.00 | 0.00 | 0.00 | 54 | 1012.9 |
| 20260504233300 | 71 | 205 | 3.0 | 9.0 | 0.00 | 0.00 | 0.00 | 54 | 1012.8 |
| 20260504232523 | 71 | 227 | 3.0 | 10.0 | 0.00 | 0.00 | 0.00 | 53 | 1012.7 |
| 20260504232017 | 72 | 210 | 4.0 | 15.0 | 0.00 | 0.00 | 0.00 | 52 | 1012.6 |
| 20260504231511 | 72 | 189 | 5.0 | 15.0 | 0.00 | 0.00 | 0.00 | 51 | 1012.6 |
| 20260504231005 | 73 | 195 | 4.0 | 14.0 | 0.00 | 0.00 | 0.00 | 50 | 1012.6 |
| 20260504230459 | 73 | 163 | 3.0 | 10.0 | 0.00 | 0.00 | 0.00 | 49 | 1012.5 |
| 20260504225953 | 74 | 215 | 3.0 | 10.0 | 0.00 | 0.00 | 0.00 | 47 | 1012.4 |
| 20260504225447 | 75 | 200 | 3.0 | 7.0 | 0.00 | 0.00 | 0.00 | 44 | 1012.4 |
| 20260504224940 | 75 | 194 | 2.0 | 7.0 | 0.00 | 0.00 | 0.00 | 37 | 1012.2 |
| 20260504224435 | 75 | 173 | 2.0 | 5.0 | 0.00 | 0.00 | 0.00 | 38 | 1012.2 |
| 20260504223423 | 76 | 213 | 1.0 | 6.0 | 0.00 | 0.00 | 0.00 | 37 | 1012.2 |
| 20260504222916 | 76 | 202 | 1.0 | 5.0 | 0.00 | 0.00 | 0.00 | 37 | 1012.2 |
| 20260504222642 | 76 | 175 | 1.0 | 4.0 | 0.00 | 0.00 | 0.00 | 37 | 1012.2 |
| 20260504221905 | 76 | 206 | 2.0 | 10.0 | 0.00 | 0.00 | 0.00 | 38 | 1012.2 |
| 20260504221359 | 76 | 206 | 3.0 | 10.0 | 0.00 | 0.00 | 0.00 | 37 | 1012.3 |
| 20260504221124 | 76 | 223 | 2.0 | 6.0 | 0.00 | 0.00 | 0.00 | 36 | 1012.2 |
| 20260504220347 | 76 | 228 | 2.0 | 6.0 | 0.00 | 0.00 | 0.00 | 37 | 1012.2 |
| 20260504215841 | 76 | 208 | 1.0 | 4.0 | 0.00 | 0.00 | 0.00 | 36 | 1012.2 |
| 20260504215607 | 76 | 194 | 1.0 | 6.0 | 0.00 | 0.00 | 0.00 | 37 | 1012.2 |
| 20260504215330 | 76 | 223 | 2.0 | 6.0 | 0.00 | 0.00 | 0.00 | 36 | 1012.3 |
| 20260504214323 | 76 | 223 | 1.0 | 5.0 | 0.00 | 0.00 | 0.00 | 37 | 1012.3 |
| 20260504214048 | 76 | 267 | 2.0 | 5.0 | 0.00 | 0.00 | 0.00 | 38 | 1012.3 |
| 20260504213311 | 76 | 155 | 2.0 | 5.0 | 0.00 | 0.00 | 0.00 | 36 | 1012.4 |
| 20260504212805 | 76 | 281 | 2.0 | 7.0 | 0.00 | 0.00 | 0.00 | 37 | 1012.4 |
| 20260504212259 | 76 | 205 | 2.0 | 8.0 | 0.00 | 0.00 | 0.00 | 36 | 1012.5 |
| 20260504211752 | 77 | 198 | 2.0 | 8.0 | 0.00 | 0.00 | 0.00 | 35 | 1012.5 |
| 20260504211247 | 77 | 211 | 3.0 | 7.0 | 0.00 | 0.00 | 0.00 | 35 | 1012.5 |
| 20260504210740 | 77 | 190 | 2.0 | 7.0 | 0.00 | 0.00 | 0.00 | 35 | 1012.5 |
| 20260504210506 | 76 | 219 | 2.0 | 6.0 | 0.00 | 0.00 | 0.00 | 36 | 1012.5 |
| 20260504210000 | 76 | 216 | 2.0 | 8.0 | 0.00 | 0.00 | 0.00 | 35 | 1012.5 |
| 20260504205454 | 77 | 213 | 2.0 | 8.0 | 0.00 | 0.00 | 0.00 | 37 | 1012.4 |
| 20260504204716 | 77 | 201 | 2.0 | 7.0 | 0.00 | 0.00 | 0.00 | 38 | 1012.5 |
| 20260504204210 | 77 | 17 | 2.0 | 9.0 | 0.00 | 0.00 | 0.00 | 39 | 1012.6 |
| 20260504203707 | 77 | 200 | 2.0 | 9.0 | 0.00 | 0.00 | 0.00 | 37 | 1012.6 |
| 20260504203701 | 77 | 163 | 2.0 | 5.0 | 0.00 | 0.00 | 0.00 | 36 | 1012.6 |
| 20260504202653 | 77 | 207 | 1.0 | 6.0 | 0.00 | 0.00 | 0.00 | 35 | 1012.6 |
| 20260504202418 | 77 | 238 | 2.0 | 6.0 | 0.00 | 0.00 | 0.00 | 36 | 1012.7 |
| 20260504201641 | 78 | 178 | 2.0 | 6.0 | 0.00 | 0.00 | 0.00 | 34 | 1012.6 |
| 20260504201135 | 77 | 292 | 2.0 | 7.0 | 0.00 | 0.00 | 0.00 | 34 | 1012.6 |
| 20260504200631 | 78 | 245 | 1.0 | 7.0 | 0.00 | 0.00 | 0.00 | 34 | 1012.7 |
| 20260504200625 | 78 | 224 | 1.0 | 4.0 | 0.00 | 0.00 | 0.00 | 35 | 1012.7 |
| 20260504195848 | 77 | 216 | 2.0 | 5.0 | 0.00 | 0.00 | 0.00 | 34 | 1012.9 |
| 20260504195110 | 77 | 228 | 2.0 | 5.0 | 0.00 | 0.00 | 0.00 | 33 | 1012.8 |
| 20260504194605 | 77 | 238 | 2.0 | 6.0 | 0.00 | 0.00 | 0.00 | 35 | 1013.0 |
| 20260504194059 | 77 | 338 | 1.0 | 6.0 | 0.00 | 0.00 | 0.00 | 36 | 1013.0 |
| 20260504193552 | 77 | 239 | 1.0 | 5.0 | 0.00 | 0.00 | 0.00 | 36 | 1013.1 |
| 20260504193149 | 77 | 215 | 2.0 | 7.0 | 0.00 | 0.00 | 0.00 | 36 | 1013.2 |
| 20260504192035 | 76 | 194 | 2.0 | 6.0 | 0.00 | 0.00 | 0.00 | 37 | 1013.2 |
| 20260504191529 | 77 | 220 | 2.0 | 6.0 | 0.00 | 0.00 | 0.00 | 36 | 1013.4 |
| 20260504191023 | 76 | 304 | 2.0 | 6.0 | 0.00 | 0.00 | 0.00 | 36 | 1013.4 |
| 20260504190517 | 76 | 218 | 2.0 | 6.0 | 0.00 | 0.00 | 0.00 | 39 | 1013.4 |
| 20260504190014 | 76 | 149 | 2.0 | 7.0 | 0.00 | 0.00 | 0.00 | 37 | 1013.6 |
| 20260504190008 | 76 | 222 | 1.0 | 7.0 | 0.00 | 0.00 | 0.00 | 38 | 1013.6 |
| 20260504184959 | 76 | 206 | 2.0 | 6.0 | 0.00 | 0.00 | 0.00 | 36 | 1013.7 |
| 20260504184453 | 76 | 347 | 2.0 | 6.0 | 0.00 | 0.00 | 0.00 | 38 | 1013.6 |
| 20260504183947 | 76 | 200 | 2.0 | 7.0 | 0.00 | 0.00 | 0.00 | 40 | 1013.8 |
| 20260504183441 | 75 | 192 | 3.0 | 8.0 | 0.00 | 0.00 | 0.00 | 38 | 1013.9 |
| 20260504182935 | 75 | 190 | 3.0 | 8.0 | 0.00 | 0.00 | 0.00 | 40 | 1014.0 |
| 20260504182428 | 76 | 167 | 2.0 | 8.0 | 0.00 | 0.00 | 0.00 | 39 | 1014.0 |
| 20260504181923 | 76 | 215 | 2.0 | 5.0 | 0.00 | 0.00 | 0.00 | 40 | 1014.1 |
| 20260504181419 | 75 | 205 | 2.0 | 5.0 | 0.00 | 0.00 | 0.00 | 38 | 1014.2 |
| 20260504181413 | 75 | 227 | 2.0 | 5.0 | 0.00 | 0.00 | 0.00 | 39 | 1014.2 |
| 20260504180636 | 76 | 224 | 1.0 | 5.0 | 0.00 | 0.00 | 0.00 | 40 | 1014.3 |
| 20260504175859 | 76 | 138 | 1.0 | 4.0 | 0.00 | 0.00 | 0.00 | 40 | 1014.4 |
| 20260504175353 | 76 | 294 | 2.0 | 4.0 | 0.00 | 0.00 | 0.00 | 40 | 1014.4 |
| 20260504175118 | 76 | 242 | 1.0 | 4.0 | 0.00 | 0.00 | 0.00 | 39 | 1014.3 |
| 20260504174341 | 76 | 250 | 2.0 | 5.0 | 0.00 | 0.00 | 0.00 | 40 | 1014.4 |
| 20260504174106 | 75 | 215 | 2.0 | 5.0 | 0.00 | 0.00 | 0.00 | 41 | 1014.3 |
| 20260504173329 | 74 | 219 | 2.0 | 5.0 | 0.00 | 0.00 | 0.00 | 41 | 1014.4 |
| 20260504172823 | 75 | 227 | 1.0 | 5.0 | 0.00 | 0.00 | 0.00 | 41 | 1014.4 |
| 20260504172317 | 75 | 229 | 2.0 | 5.0 | 0.00 | 0.00 | 0.00 | 42 | 1014.7 |
| 20260504171811 | 75 | 208 | 2.0 | 10.0 | 0.00 | 0.00 | 0.00 | 40 | 1014.8 |
| 20260504171305 | 75 | 198 | 1.0 | 10.0 | 0.00 | 0.00 | 0.00 | 40 | 1014.6 |
| 20260504170758 | 75 | 224 | 1.0 | 7.0 | 0.00 | 0.00 | 0.00 | 42 | 1014.7 |
| 20260504170253 | 75 | 225 | 2.0 | 11.0 | 0.00 | 0.00 | 0.00 | 44 | 1014.7 |
| 20260504160141 | 73 | 187 | 1.0 | 8.0 | 0.00 | 0.00 | 0.00 | 46 | 1015.4 |
| 20260504150538 | 70 | 215 | 1.0 | 4.0 | 0.00 | 0.00 | 0.00 | 49 | 1015.9 |
| 20260504150308 | 70 | 191 | 2.0 | 5.0 | 0.00 | 0.00 | 0.00 | 48 | 1015.9 |
| 20260504141040 | 67 | 215 | 1.0 | 5.0 | 0.00 | 0.00 | 0.00 | 56 | 1016.0 |
| 20260504140526 | 67 | 198 | 0.0 | 4.0 | 0.00 | 0.00 | 0.00 | 55 | 1016.2 |
| 20260504130449 | 62 | 211 | 1.0 | 5.0 | 0.00 | 0.00 | 0.00 | 63 | 1016.7 |
| 20260504130214 | 61 | 166 | 0.0 | 3.0 | 0.00 | 0.00 | 0.00 | 65 | 1016.8 |
| 20260504110225 | 52 | 178 | 1.0 | 3.0 | 0.00 | 0.00 | 0.00 | 80 | 1017.2 |
| 20260504100114 | 52 | 171 | 0.0 | 0.0 | 0.00 | 0.00 | 0.00 | 77 | 1017.2 |
| 20260504081913 | 51 | 178 | 0.0 | 2.0 | 0.00 | 0.00 | 0.00 | 80 | 1017.6 |
| 20260504081407 | 51 | 182 | 0.0 | 3.0 | 0.00 | 0.00 | 0.00 | 80 | 1017.6 |
| 20260504080900 | 51 | 167 | 0.0 | 3.0 | 0.00 | 0.00 | 0.00 | 80 | 1017.7 |
| 20260504080627 | 51 | 188 | 0.0 | 0.0 | 0.00 | 0.00 | 0.00 | 80 | 1017.8 |
| 20260504070243 | 49 | 192 | 0.0 | 2.0 | 0.00 | 0.00 | 0.00 | 79 | 1017.7 |
| 20260504060201 | 49 | 175 | 0.0 | 2.0 | 0.00 | 0.00 | 0.00 | 77 | 1017.8 |